Location: ???????
(38.3360°N, 23.6977°E)
Time: 05:42:13
(UTC+00:00)

Cosmos 1513 Rocket - Pass Details

Date: 17 November 2025
Orbit: 939 x 1007 km, 82.9° (Epoch: 09 December)

Event Time Altitude Azimuth Distance (km) Brightness Sun altitude
Rises 16:11:38 0° 182° (S) 3,678 7.7 -12.0°
Reaches altitude 10° 16:14:07 10° 181° (S) 2,742 7.1 -12.5°
Maximum altitude 16:20:25 82° 95° (E) 1,014 4.5 -13.7°
Drops below altitude 10° 16:26:51 10° 9° (N) 2,788 6.7 -14.9°
Sets 16:29:24 0° 8° (N) 3,744 7.3 -15.4°
